Flag for Norway Weather past 2 weeks in Longyearbyen, Svalbard, Norway

Now
36 °F

Broken clouds.


Feels Like: 29 °F
Forecast: 10 / 31 °F
Wind: 8 mph from South

Location: Svalbard Lufthavn

Current Time: Mar 27, 2015 at 1:49:49 PM

Latest Report: Mar 27, 2015 at 12:50 PM


Visibility: N/A

Pressure: 29.39 "Hg

Humidity: 70%

Dew point: 27 °F

Location of LongyearbyenLocation

Historic Weather in Longyearbyen — Graph

°F

Longyearbyen temperature yesterday

Maximum temperature yesterday: 37 °F (at 12:50 PM)
Minimum temperature yesterday: 23 °F (at 1:50 AM)
Average temperature yesterday: 33 °F

Past Weeks' High & Low Weather Summary

 TemperatureHumidityPressure
High41 °F (Mar 15, 5:50 AM)93% (Mar 14, 8:50 PM)30.27 "Hg (Mar 14, 8:50 PM)
Low-4 °F (Mar 21, 1:50 AM)47% (Mar 23, 9:50 AM)28.97 "Hg (Mar 15, 6:50 PM)
Average15 °F71%29.83 "Hg
* Reported Mar 12 11:50 AM — Mar 27 11:50 AM, Longyearbyen, Weather by CustomWeather, © 2015

Note: Actual official high and low records may vary slightly from our data, if they occured in-between our weather recording intervals... More about our weather records

Advertising

Longyearbyen weather history for previous 24 hours

 ConditionsComfort  
Time TempWeatherWind HumidityBarometerVisibility
11:50 AM
Fri, Mar 27
36 °FScattered clouds.7 mph75%29.42 "HgN/A
10:50 AM36 °FBroken clouds.12 mph70%29.45 "HgN/A
9:50 AM34 °FBroken clouds.6 mph81%29.45 "HgN/A
8:50 AM36 °FPartly sunny.15 mph70%29.47 "HgN/A
7:50 AM34 °FPartly sunny.13 mph70%29.47 "HgN/A
6:50 AM36 °FBroken clouds.18 mph70%29.50 "HgN/A
5:50 AM36 °FBroken clouds.22 mph60%29.50 "HgN/A
4:50 AM36 °FLight rain. Partly cloudy.14 mph65%29.53 "HgN/A
3:50 AM36 °FPassing clouds.13 mph60%29.53 "HgN/A
2:50 AM36 °FPassing clouds.14 mph65%29.56 "HgN/A
12:50 AM36 °FPassing clouds.17 mph70%29.59 "HgN/A
11:50 PM
Thu, Mar 26
36 °FLight snow. Fog.17 mph75%29.59 "Hg4 mi
10:50 PM37 °FPassing clouds.25 mph65%29.59 "HgN/A
9:50 PM36 °FLight rain. Light fog.22 mph75%29.59 "Hg6 mi
8:50 PM36 °FRain. Partly cloudy.24 mph81%29.59 "Hg3 mi
7:50 PM36 °FLight snow. Fog.22 mph81%29.59 "Hg3 mi
6:50 PM36 °FLight rain. Fog.24 mph81%29.59 "HgN/A
5:50 PM36 °FLight snow. Fog.31 mph81%29.56 "Hg2 mi
4:55 PM36 °FRain. Fog.31 mph81%29.56 "Hg3 mi
3:50 PM37 °FLight rain. Fog.32 mph75%29.53 "HgN/A
3:02 PM37 °FLight rain. Partly sunny.33 mph75%29.53 "HgN/A
1:50 PM36 °FLight rain. Broken clouds.28 mph81%29.53 "Hg2 mi
1:20 PM37 °FLight rain. Partly sunny.32 mph70%29.53 "HgN/A
Weather by CustomWeather, © 2015

See weather overviewHow to use our weather pages